Tracking 30918 objects as of 2-Jul-2025
HD Live streaming from Space Station
objects crossing your sky now

JILIN-01 GAOFEN 3D 33

Track JILIN-01 GAOFEN 3D 33 now!
10-day predictions


NORAD ID: 52450
Int'l Code: 2022-048H
Perigee: 401.6 km
Apogee: 410.6 km
Inclination: 97.6 °
Period: 92.5 minutes
Semi major axis: 6777 km
RCS: Unknown
Launch date: May 5, 2022
Source: People's Republic of China (PRC)
Launch site: Taiyaun Space Center, China (TSC)
Your satellite tracking list
FENGYUN 1C DEB
Track 1 satellite(s)




NASA's NSSDC Master Catalog

Two Line Element Set (TLE):
1 52450U 22048H   25182.91298923  .00039597  00000-0  56642-3 0  9992
2 52450  97.5755 281.2599 0006676 191.2432 168.8674 15.56096710175664
Source of the keplerian elements: AFSPC